Location: Sarah�s
(42.4771°N, 0.7910°E)
Time: 06:32:34
(UTC+00:00)

Daily predictions for brighter satellites

Satellite Brightness Start Highest point End
(mag) Time Altitude Azimuth Time Altitude Azimuth Time Altitude Azimuth
Cosmos 1943 Rocket 2.6 18:47:43 10° NNW 18:53:14 67° WSW 18:58:46 10° SSE
H-2A R/B 2.5 18:49:26 10° SE 18:54:15 40° ENE 18:58:58 10° N
Resurs 01 Rocket 3.7 18:56:35 10° ENE 18:57:21 10° ENE 18:58:06 10° NE
Cosmos 2228 3.7 18:55:10 10° SSE 18:59:01 33° E 19:02:57 10° NNE
Cosmos 2251 Rocket 4.1 18:55:30 10° SSW 19:00:49 66° WNW 19:06:12 10° NNE
ATLAS 2AS CENTAUR R/B 3.2 18:53:43 10° NNW 19:01:06 50° NE 19:07:51 10° ESE
CZ-2C R/B 3.3 18:58:30 10° SE 19:03:03 42° ENE 19:07:32 10° N
SeaSat 1 2.6 18:58:38 10° NNE 19:03:35 80° WNW 19:08:30 10° SSW
HJ-1C 3.4 19:00:34 10° SSE 19:03:55 86° ENE 19:07:18 10° N
USA 186 2.5 19:03:19 10° SE 19:06:21 34° ENE 19:09:16 10° N
Cosmos 2369 Rocket 2.6 19:01:02 10° NNW 19:06:42 70° WSW 19:12:17 10° SSE
Cosmos 1758 Rocket 3.6 19:03:43 10° N 19:08:00 59° E 19:12:14 10° SSE
Meteor 1-21 Rocket 4.2 19:02:26 10° N 19:08:01 87° E 19:13:34 10° S
Ariane Rocket 3.0 19:04:18 10° SSE 19:09:17 63° ENE 19:14:18 10° N
BREEZE M DEB (TANK) 4.5 18:54:18 10° SW 19:09:40 64° SSE 19:13:53 10° ENE
Cosmos 1140 Rocket 4.2 19:05:13 10° SSE 19:09:40 30° E 19:14:08 10° NE
SJ-11-01 4.3 19:06:40 10° SSE 19:11:21 78° ENE 19:16:07 10° N
SL-4 R/B 2.6 19:08:04 10° WSW 19:11:22 46° NNW 19:14:41 10° NE
Cosmos 1606 Rocket 3.7 19:10:00 10° S 19:14:18 54° E 19:18:40 10° NNE
Cosmos 1340 Rocket 3.8 19:12:17 10° SSE 19:15:43 27° E 19:19:09 10° NNE
Cosmos 1953 Rocket 4.1 19:11:49 10° N 19:16:04 41° ENE 19:20:18 10° SSE
Cosmos 1703 3.7 19:13:10 10° N 19:16:58 43° ENE 19:20:45 10° SSE
MOS 1 4.4 19:14:01 10° SSE 19:19:33 61° ENE 19:25:08 10° N
Cosmos 614 Rocket 4.0 19:14:31 10° S 19:19:40 62° ESE 19:24:49 10° NNE
Cosmos 1190 Rocket 4.3 19:14:46 10° S 19:19:45 43° ESE 19:24:45 10° NNE
Cosmos 1328 4.1 19:16:47 10° N 19:20:39 46° ENE 19:24:31 10° SSE
IRIDIUM 104 4.3 19:15:25 10° N 19:20:40 82° E 19:25:53 10° S
Cosmos 1908 3.4 19:18:33 10° S 19:22:16 49° E 19:26:03 10° NNE
Cosmos 2074 Rocket 4.0 19:19:40 10° N 19:26:00 82° E 19:32:18 10° S
Cosmos 1726 2.7 19:24:15 10° SSW 19:27:56 62° W 19:31:39 10° N
APEX 4.4 19:23:05 10° NNW 19:29:26 59° ENE 19:33:59 13° SE
IRIDIUM 114 4.4 19:24:34 10° N 19:29:49 83° W 19:35:02 10° S
Cosmos 1943 4.0 19:24:51 10° SW 19:30:24 56° WNW 19:36:01 10° NNE
STARLINK-67 3.6 19:29:46 10° NW 19:32:07 30° NNE 19:33:19 20° ENE
SL-24 R/B 4.2 19:30:02 10° NNE 19:33:45 39° E 19:37:13 10° SSE
Cosmos 1656 Rocket 3.7 19:28:47 10° NNW 19:34:28 86° WSW 19:40:01 10° SSE
Abrixas rocket 3.3 19:32:16 10° NW 19:34:57 30° NNE 19:36:50 16° ENE
STARLINK-29 2.8 19:32:42 10° SW 19:35:53 85° SSE 19:39:06 10° NE
BREEZE-M DEB (TANK) 4.2 19:30:25 10° WNW 19:36:41 48° NNE 19:38:39 19° E
CZ-4 R/B 4.5 19:35:11 10° WSW 19:36:58 13° W 19:38:46 10° WNW
MetOp-A 4.4 19:34:34 12° SE 19:39:20 48° ENE 19:44:28 10° N
STARLINK-60 4.3 19:37:47 10° WSW 19:40:55 40° NNW 19:44:03 10° NE
Cosmos 1953 4.4 19:38:49 10° SW 19:42:22 31° WNW 19:45:57 10° NNW
Cosmos 1610 Rocket 4.4 19:36:43 10° N 19:42:53 72° E 19:49:00 10° SSE
CZ-2C R/B 3.0 19:39:27 10° NNE 19:44:15 37° E 19:49:04 10° SSE
Cosmos 407 Rocket 3.4 19:41:10 10° SSW 19:46:19 89° ESE 19:51:28 10° NNE
ARGOS 3.2 19:42:20 10° SSE 19:47:44 81° WSW 19:53:08 10° NNW
Cosmos 676 Rocket 4.2 19:43:42 10° S 19:48:43 47° ESE 19:53:45 10° NNE
Meteor 1-11 4.2 19:46:12 10° N 19:51:58 79° E 19:57:37 10° SSE
SL-24 R/B - RUBIN 2 4.5 19:50:56 10° SW 19:56:27 75° NW 20:02:44 10° NNE
GEOS 3 Rocket 4.4 19:51:53 10° SSE 19:56:48 47° WSW 20:01:49 10° NW
SPOT 3 Rocket 3.5 19:53:38 14° SSE 19:58:06 75° ENE 20:03:18 10° N
CZ-2C R/B 3.7 19:55:39 10° NNE 20:00:22 84° ESE 20:04:58 10° SSW
Resurs 1-3 3.6 19:58:05 24° SSE 20:00:37 62° ENE 20:04:58 10° N
STARLINK-1201 4.1 20:02:36 10° NW 20:05:36 32° NNE 20:06:16 29° NE
COSMOS 2455 2.9 20:00:25 10° NNW 20:06:26 63° ENE 20:09:32 29° SE
SL-08 RB Rocket 4.0 20:02:48 10° S 20:07:15 68° WSW 20:11:51 10° NNW
Cosmos 1954 Rocket 3.9 20:05:48 10° S 20:11:01 71° ESE 20:16:13 10° NNE
STARLINK-1228 3.1 20:08:42 10° NW 20:11:35 50° NNE 20:11:37 50° NE
FALCON 9 DEB 3.9 20:08:15 10° WSW 20:11:42 53° NNW 20:14:16 16° NE
MOS 1 Rocket 3.5 20:08:11 10° NNE 20:13:38 76° ESE 20:19:03 10° S
STARLINK-52 3.9 20:13:18 10° WSW 20:16:25 46° NNW 20:18:10 22° NNE
Cosmos 2058 Rocket 3.6 20:12:07 10° SSW 20:16:34 63° W 20:21:04 10° N
Cosmos 1892 4.4 20:14:58 10° NNE 20:17:06 20° NE 20:17:06 20° NE
BREEZE M DEB (TANK) 2.6 20:16:40 10° SW 20:19:39 76° SSE 20:27:49 10° ENE
NOSS 3-4 (A) 4.1 20:12:53 10° NW 20:19:58 69° WSW 20:25:15 22° SSE
NOSS 3-4 (C) 4.1 20:13:00 10° NW 20:20:04 69° WSW 20:25:20 22° SSE
ATLAS 5 CENTAUR R/B 2.7 20:18:28 10° WSW 20:22:26 44° NW 20:26:54 10° NNE
CZ-4C R/B 4.5 20:19:48 10° NNW 20:24:49 21° NNE 20:29:18 13° ENE
Cosmos 2341 Rocket 4.0 20:18:37 10° N 20:25:03 82° E 20:29:06 24° SSE
Cosmos 1763 Rocket 4.3 20:25:58 10° N 20:30:35 32° ENE 20:30:58 31° ENE
Cosmos 921 Rocket 3.3 20:28:39 10° NNW 20:32:47 59° WSW 20:34:07 39° SSW
Resurs 01 Rocket 1.5 20:31:53 47° S 20:33:08 86° W 20:37:34 10° NNW
H-2A R/B 4.1 20:29:32 10° SSW 20:33:47 25° W 20:37:58 10° NW
Cosmos 1461 3.8 20:32:19 10° NW 20:36:44 48° WSW 20:38:11 35° SSW
Cosmos 1300 3.1 20:35:17 32° SSW 20:36:50 62° W 20:40:38 10° N
Cosmos 2218 Rocket 4.0 20:31:35 10° N 20:37:46 63° E 20:39:41 44° SE
Landsat 7 4.3 20:42:03 42° ENE 20:42:03 42° ENE 20:46:20 10° N
Iridium 4 Rocket 3.7 20:38:48 10° N 20:41:55 41° NE 20:41:55 41° NE
USA 234 3.1 20:38:27 10° NE 20:44:56 63° SE 20:51:24 10° SW
STARLINK-1202 4.5 20:41:39 10° NW 20:45:35 40° NNE 20:45:39 40° NNE
Cosmos 1812 Rocket 3.5 20:46:09 70° NE 20:46:09 70° NE 20:50:07 10° NNE
In-Cosmos 22 Rocket 4.2 20:40:21 10° N 20:46:13 75° E 20:47:33 54° SSE
USA 245 4.4 20:46:41 53° SE 20:47:53 66° ENE 20:54:11 10° N
Cosmos 220 Rocket 4.0 20:44:26 10° NNW 20:48:32 71° NE 20:48:32 71° NE
SL-4 R/B 3.9 20:49:02 10° NW 20:51:33 19° N 20:52:28 17° NNE
Cosmos 2181 Rocket 4.0 20:46:48 18° S 20:51:36 82° W 20:57:48 10° N
ATLAS 2AS CENTAUR R/B 3.8 20:45:08 10° NW 20:51:53 39° WSW 20:55:53 21° SSW
SL-8 Rocket 4.0 20:45:42 10° N 20:52:03 85° W 20:54:31 40° S
RESURS DK-1 4.1 20:49:19 10° N 20:51:45 22° NNE 20:51:45 22° NNE
Cosmos 864 Rocket 4.3 20:47:52 10° N 20:54:07 77° E 20:55:29 56° SSE
MetOp-B 4.0 20:53:18 61° SSE 20:54:17 88° ENE 20:59:41 10° NNW
Cosmos 2058 3.3 20:50:45 10° N 20:54:05 56° N 20:54:05 56° N
STARLINK-1246 4.4 20:51:34 10° NW 20:55:12 44° NNE 20:55:12 44° NNE
STARLINK-1203 4.4 20:55:39 10° NW 20:59:14 48° N 20:59:14 48° N
Spot 2 Rocket 3.3 20:59:40 78° SSE 21:00:00 87° ENE 21:05:09 10° NNW
STARLINK-1224 4.5 20:56:33 10° NW 21:00:00 45° N 21:00:00 45° N
ERBS 4.3 20:58:00 10° NW 20:59:49 26° NNW 20:59:49 26° NNW
Cosmos 1850 Rocket 3.8 21:02:16 78° ENE 21:02:16 78° ENE 21:07:14 10° NNE
BREEZE-M DEB (TANK) 4.5 21:00:56 10° NW 21:02:11 15° NNW 21:02:11 15° NNW
Cosmos 2366 rocket 3.9 20:59:23 10° N 21:05:33 84° W 21:06:58 56° S
COSMOS 2406 3.4 21:08:17 57° ENE 21:08:17 57° ENE 21:12:59 10° NNE
Cosmos 841 Rocket 4.4 21:04:01 10° N 21:08:12 36° NE 21:08:12 36° NE
Cosmos 1076 Rocket 4.1 21:07:29 10° NNW 21:11:04 56° NW 21:11:04 56° NW
Nadezhda 3 Rocket 4.4 21:15:55 48° ENE 21:15:55 48° ENE 21:21:03 10° NNE
SPOT 5 4.1 21:22:34 30° NNE 21:22:34 30° NNE 21:24:57 10° N
Cosmos 468 Rocket 4.1 21:15:36 10° NNW 21:20:19 71° NW 21:20:19 71° NW
Terra 3.2 21:25:36 31° NNE 21:25:36 31° NNE 21:28:25 10° N
CZ-2C R/B 4.4 21:20:02 10° N 21:24:24 28° WNW 21:28:46 10° WSW
ERS-1 Rocket 3.5 21:27:11 54° N 21:27:11 54° N 21:31:07 10° N
Cosmos 2369 4.4 21:22:41 10° NNW 21:27:19 43° NE 21:27:19 43° NE
Cosmos 1570 Rocket 4.5 21:24:05 10° NNW 21:28:26 56° N 21:28:26 56° N
Cosmos 1697 Rocket 3.3 21:25:28 10° NNW 21:30:07 46° NNE 21:30:07 46° NNE
Cosmos 489 Rocket 4.4 21:32:00 10° NNW 21:37:49 78° N 21:37:49 78° N
Cosmos 1821 Rocket 4.1 21:40:12 10° N 21:45:57 72° NNE 21:45:57 72° NNE
SL-16 R/B 4.4 21:47:18 10° N 21:50:12 15° NE 21:50:12 15° NE
Cosmos 1656 4.3 21:48:02 10° NNW 21:52:36 53° WNW 21:52:36 53° WNW
Cosmos 2322 Rocket 4.4 21:55:09 10° NNE 21:57:48 14° NE 21:57:48 14° NE
ATLAS CENTAUR R/B 4.1 21:54:49 10° NNW 21:55:38 15° NNW 21:55:38 15° NNW
Cosmos 1980 Rocket 3.3 21:55:17 10° NNW 21:59:03 37° NNE 21:59:03 37° NNE
CZ-4C R/B 3.2 22:07:36 10° NNW 22:14:28 61° NE 22:14:28 61° NE
Cosmos 2082 Rocket 3.8 22:30:55 28° NNE 22:30:55 28° NNE 22:33:28 10° NNE
USA 234 4.1 22:21:37 10° NE 22:27:48 46° NNW 22:33:57 10° W
Cosmos 1833 Rocket 4.1 22:38:06 34° NNW 22:38:06 34° NNW 22:41:56 10° NNE
Cosmos 2344 4.4 22:37:06 10° NW 22:46:56 78° NE 22:48:33 69° ESE
SL-16 R/B 4.1 23:29:47 10° NNW 23:32:03 25° NNW 23:32:03 25° NNW
Cosmos 2360 Rocket 4.2 23:32:15 10° N 23:34:45 24° N 23:34:45 24° N
Cosmos 2322 Rocket 4.2 23:37:28 10° NNW 23:39:36 24° NNW 23:39:36 24° NNW
